Change the Weather History Date:

Thursday, April 10, 2008

  Actual Average Record
Temperature  
Mean Temperature 59 °F 54 °F  
Max Temperature 72 °F 66 °F 87 °F (2001)
Min Temperature 45 °F 41 °F 23 °F (1985)
Degree Days  
Heating Degree Days 6 11  
Month to date heating degree days 86 126  
Since 1 July heating degree days 3648 3898  
Cooling Degree Days 0 0  
Month to date cooling degree days 0 0  
Year to date cooling degree days 0 1  
Growing Degree Days 8 (Base 50)    
Moisture  
Dew Point 47 °F    
Average Humidity 69    
Maximum Humidity 100    
Minimum Humidity 38    
Precipitation  
Precipitation 0.00 in 0.12 in 1.80 in (1870)
Month to date precipitation 1.43 1.14  
Year to date precipitation 12.29 12.40  
Snow  
Snow 0.00 in 0.00 in 4.00 in (2003)
Month to date snowfall 0.0 0.4  
Since 1 July snowfall 3.8 9.6  
Snow Depth -    
Sea Level Pressure  
Sea Level Pressure 30.09 in    
Wind  
Wind Speed 5 mph (SSE)    
Max Wind Speed 17 mph    
Max Gust Speed 22 mph    
Visibility 9 miles    
Events      
T = Trace of Precipitation, MM = Missing Value Source: NWS Daily Summary

Daily Weather History Graph

Daily Weather History Graph

Search for Another Location

Airport or City:

Trip Planner

Search our weather history database for the weather conditions in past years. The results will help you decide how hot, cold, wet, or windy it might be!

Date:

Astronomy

Apr. 10, 2008 Rise Set
Actual Time 7:03 AM EDT 7:59 PM EDT
Civil Twilight 6:37 AM EDT 8:25 PM EDT
Nautical Twilight 6:07 AM EDT 8:56 PM EDT
Astronomical Twilight 5:35 AM EDT 9:28 PM EDT
Moon 10:12 AM EDT (4/10) 12:41 AM EDT (4/10)
Length of Visible Light 13h 47m
Length of Day
12h 55m
Waxing Crescent, 27% of the Moon is Illuminated
Apr 10
Waxing Crescent
Apr 12
First Quarter
Apr 20
Full
Apr 28
Last Quarter
May 5
New

Hourly Weather History & Observations

Time (EDT) Temp. Dew Point Humidity Pressure Visibility Wind Dir Wind Speed Gust Speed Precip Events Conditions
12:54 AM 51.8 °F 48.2 °F 88% 30.19 in 9.0 mi Calm Calm - N/A   Clear
1:54 AM 51.1 °F 48.0 °F 89% 30.14 in 9.0 mi Calm Calm - N/A   Clear
2:54 AM 48.9 °F 46.9 °F 93% 30.13 in 6.0 mi Calm Calm - N/A   Clear
3:54 AM 46.9 °F 46.0 °F 97% 30.12 in 5.0 mi Calm Calm - N/A   Clear
4:54 AM 46.0 °F 45.0 °F 96% 30.11 in 6.0 mi Calm Calm - N/A   Clear
5:54 AM 46.0 °F 45.0 °F 96% 30.12 in 6.0 mi Calm Calm - N/A   Clear
7:54 AM 46.4 °F 44.6 °F 93% 30.17 in 6.0 mi Calm Calm - N/A   Clear
8:54 AM 50.0 °F 48.2 °F 94% 30.18 in 7.0 mi SSE 3.5 mph - N/A   Clear
9:54 AM 57.9 °F 50.0 °F 75% 30.14 in 10.0 mi SE 3.5 mph - N/A   Clear
10:54 AM 63.0 °F 52.0 °F 67% 30.13 in 10.0 mi Variable 4.6 mph - N/A   Clear
11:54 AM 66.9 °F 50.0 °F 54% 30.12 in 10.0 mi SE 8.1 mph - N/A   Clear
12:54 PM 69.1 °F 48.0 °F 47% 30.10 in 10.0 mi South 13.8 mph - N/A   Clear
1:54 PM 70.0 °F 45.0 °F 41% 30.08 in 10.0 mi ESE 10.4 mph 18.4 mph N/A   Clear
2:54 PM 70.0 °F 46.0 °F 42% 30.06 in 10.0 mi ESE 12.7 mph 19.6 mph N/A   Clear
3:54 PM 71.1 °F 48.0 °F 44% 30.06 in 10.0 mi SSE 11.5 mph - N/A   Clear
4:54 PM 71.1 °F 45.0 °F 39% 30.04 in 10.0 mi South 10.4 mph - N/A   Clear
5:54 PM 69.1 °F 46.0 °F 44% 30.04 in 10.0 mi South 9.2 mph - N/A   Clear
6:54 PM 68.0 °F 46.0 °F 45% 30.04 in 10.0 mi SSE 8.1 mph - N/A   Clear
7:54 PM 66.9 °F 46.0 °F 47% 30.03 in 10.0 mi SSE 10.4 mph - N/A   Clear
8:54 PM 64.0 °F 46.0 °F 52% 30.03 in 10.0 mi SSE 5.8 mph - N/A   Clear
9:54 PM 60.1 °F 46.9 °F 62% 30.04 in 10.0 mi SSE 3.5 mph - N/A   Clear
10:54 PM 57.0 °F 46.9 °F 69% 30.03 in 10.0 mi Calm Calm - N/A   Clear
11:54 PM 55.4 °F 46.4 °F 72% 30.06 in 10.0 mi Calm Calm - N/A   Partly Cloudy